Flag for U.S.A. Weather past 2 weeks in Lewiston, Idaho, U.S.A.

Now
31 °F

Passing clouds.


Feels Like: 21 °F
Forecast: 17 / 31 °F
Wind: 13 mph from Northeast

Location: Lewiston-Nez Perce County Airport

Current Time: Dec 29, 2014 at 6:42:41 AM

Latest Report: Dec 29, 2014 at 5:56 AM


Visibility: 10 mi

Pressure: 30.26 "Hg

Humidity: 69%

Dew point: 22 °F

Location of LewistonLocation

Historic Weather in Lewiston — Graph

°F

Lewiston temperature yesterday

Maximum temperature yesterday: 41 °F (at 11:56 AM)
Minimum temperature yesterday: 31 °F (at 9:56 PM)
Average temperature yesterday: 36 °F

Past Weeks' High & Low Weather Summary

 TemperatureHumidityPressure
High60 °F (Dec 21, 3:56 AM)100% (Dec 14, 7:56 AM)30.42 "Hg (Dec 14, 7:56 AM)
Low27 °F (Dec 27, 12:56 AM)48% (Dec 22, 2:56 PM)29.53 "Hg (Dec 21, 12:56 AM)
Average40 °F78%30.06 "Hg
* Reported Dec 14 4:56 AM — Dec 29 4:56 AM, Lewiston, Weather by CustomWeather, © 2014

Note: Actual official high and low records may vary slightly from our data, if they occured in-between our weather recording intervals... More about our weather records

Advertising

Lewiston weather history for previous 24 hours

 ConditionsComfort  
Time TempWeatherWind HumidityBarometerVisibility
4:56 AM
Dec 29
29 °FPartly cloudy.3 mph93%30.24 "Hg10 mi
3:56 AM31 °FOvercast.5 mph89%30.22 "Hg10 mi
2:56 AM30 °FMostly cloudy.6 mph89%30.22 "Hg10 mi
1:56 AM31 °FOvercast.6 mph85%30.20 "Hg10 mi
12:56 AM31 °FMostly cloudy.7 mph85%30.19 "Hg10 mi
11:56 PM
Dec 28
31 °FMostly cloudy.5 mph92%30.19 "Hg10 mi
10:56 PM31 °FOvercast.No wind96%30.19 "Hg10 mi
9:56 PM31 °FOvercast.No wind92%30.19 "Hg10 mi
8:56 PM33 °FPassing clouds.No wind92%30.18 "Hg10 mi
7:56 PM34 °FPassing clouds.3 mph88%30.17 "Hg10 mi
6:56 PM34 °FMostly cloudy.5 mph92%30.16 "Hg10 mi
5:56 PM35 °FLight rain. Mostly cloudy.3 mph92%30.16 "Hg10 mi
4:56 PM36 °FOvercast.3 mph92%30.15 "Hg10 mi
3:56 PM36 °FMostly cloudy.6 mph92%30.14 "Hg10 mi
2:56 PM36 °FLight rain. Mostly cloudy.No wind92%30.13 "Hg10 mi
1:56 PM37 °FLight rain. Cloudy.8 mph89%30.12 "Hg10 mi
12:56 PM37 °FMostly cloudy.14 mph86%30.11 "Hg10 mi
11:56 AM41 °FMostly cloudy.13 mph70%30.10 "Hg10 mi
10:56 AM40 °FMostly cloudy.No wind77%30.11 "Hg10 mi
9:56 AM39 °FMostly cloudy.No wind79%30.11 "Hg10 mi
8:56 AM38 °FOvercast.No wind79%30.09 "Hg10 mi
7:56 AM37 °FOvercast.5 mph82%30.07 "Hg10 mi
6:56 AM37 °FMostly cloudy.5 mph79%30.05 "Hg10 mi
Weather by CustomWeather, © 2014

See weather overviewHow to use our weather pages